Lambertville, MI

6:25 PM EDT on August 22, 2017 (GMT -0400)
Lambertville

Weather History for KDUH - March, 2012

Change the Weather History Date:

Friday, March 16, 2012

  Actual Average (KTOL) Record (KTOL)
Temperature  
Mean Temperature 65 °F -  
Max Temperature 73 °F 44 °F 78 °F (1945)
Min Temperature 58 °F 26 °F 2 °F (1900)
Growing Degree Days 15 (Base 50)    
Moisture  
Dew Point 57 °F    
Average Humidity 78    
Maximum Humidity 89    
Minimum Humidity 63    
Precipitation  
Precipitation 0.00 in - - ()
Sea Level Pressure  
Sea Level Pressure 30.09 in    
Wind  
Wind Speed 6 mph (SW)    
Max Wind Speed 12 mph    
Max Gust Speed 18 mph    
Visibility 10 miles    
Events Rain    
Averages and records for this station are not official NWS values.
T = Trace of Precipitation, MM = Missing Value Source: NWS Daily Summary

Daily Weather History Graph

Daily Weather History Graph

Search for Another Location

Airport or City:

Trip Planner

Search our weather history database for the weather conditions in past years. The results will help you decide how hot, cold, wet, or windy it might be!

Date:

Astronomy

Mar. 16, 2012 Rise Set
Actual Time 7:43 AM EDT 7:42 PM EDT
Civil Twilight 7:16 AM EDT 8:10 PM EDT
Nautical Twilight 6:43 AM EDT 8:43 PM EDT
Astronomical Twilight 6:11 AM EDT 9:15 PM EDT
Moon 4:05 AM EDT (3/16) 1:57 PM EDT (3/16)
Length of Visible Light 12h 54m
Length of Day
11h 58m
Waning Crescent, 33% of the Moon is Illuminated
Mar 16
Waning Crescent
Mar 22
New
Mar 30
First Quarter
Apr 6
Full
Apr 13
Last Quarter

Hourly Weather History & Observations

Time (EDT) Temp. Dew Point Humidity Pressure Visibility Wind Dir Wind Speed Gust Speed Precip Events Conditions
12:14 AM 61.2 °F 57.4 °F 87% 30.03 in 10.0 mi SSW 3.5 mph - N/A Rain Light Rain
12:35 AM 61.0 °F 56.8 °F 86% 30.02 in 10.0 mi SSE 5.8 mph - N/A   Scattered Clouds
12:55 AM 60.4 °F 57.2 °F 89% 30.04 in 10.0 mi South 5.8 mph - N/A   Scattered Clouds
1:15 AM 61.2 °F 57.6 °F 88% 30.04 in 10.0 mi SSE 3.5 mph - N/A   Mostly Cloudy
1:35 AM 62.2 °F 59.0 °F 89% 30.04 in 7.0 mi South 10.4 mph 18.4 mph N/A   Scattered Clouds
1:55 AM 63.0 °F 57.4 °F 82% 30.04 in 10.0 mi SSW 11.5 mph 16.1 mph N/A   Scattered Clouds
2:15 AM 62.2 °F 57.2 °F 84% 30.03 in 10.0 mi SSW 8.1 mph - N/A   Clear
2:35 AM 61.9 °F 57.0 °F 84% 30.04 in 10.0 mi South 9.2 mph - N/A   Clear
2:55 AM 61.3 °F 55.9 °F 82% 30.04 in 10.0 mi South 9.2 mph - N/A   Clear
3:15 AM 61.2 °F 55.4 °F 81% 30.05 in 10.0 mi South 10.4 mph - N/A   Clear
3:35 AM 61.2 °F 54.9 °F 80% 30.05 in 10.0 mi SSW 9.2 mph - N/A   Clear
3:55 AM 61.0 °F 54.7 °F 80% 30.05 in 10.0 mi SSW 11.5 mph 16.1 mph N/A   Scattered Clouds
4:15 AM 60.8 °F 54.1 °F 79% 30.05 in 10.0 mi SSW 9.2 mph - N/A   Clear
4:34 AM 60.8 °F 54.1 °F 79% 30.05 in 10.0 mi South 9.2 mph 17.3 mph N/A   Clear
4:55 AM 60.3 °F 54.1 °F 80% 30.05 in 10.0 mi SSW 9.2 mph 16.1 mph N/A   Clear
5:15 AM 59.9 °F 54.0 °F 81% 30.05 in 10.0 mi SSW 9.2 mph - N/A   Clear
5:35 AM 59.5 °F 53.8 °F 81% 30.07 in 10.0 mi SSW 8.1 mph - N/A   Clear
5:55 AM 59.4 °F 53.6 °F 81% 30.07 in 10.0 mi SSW 5.8 mph - N/A   Clear
6:14 AM 59.4 °F 53.8 °F 82% 30.07 in 10.0 mi WSW 3.5 mph - N/A   Clear
6:35 AM 59.4 °F 53.8 °F 82% 30.07 in 10.0 mi SW 5.8 mph - N/A   Clear
6:55 AM 59.0 °F 53.8 °F 83% 30.08 in 10.0 mi SW 4.6 mph - N/A   Clear
7:15 AM 59.0 °F 54.0 °F 83% 30.08 in 10.0 mi WSW 3.5 mph - N/A   Clear
7:35 AM 58.5 °F 54.0 °F 85% 30.09 in 10.0 mi SW 4.6 mph - N/A   Clear
7:55 AM 58.5 °F 54.1 °F 86% 30.09 in 10.0 mi SW 3.5 mph - N/A   Clear
8:15 AM 59.0 °F 54.5 °F 85% 30.10 in 10.0 mi SW 3.5 mph - N/A   Clear
8:35 AM 59.4 °F 54.5 °F 84% 30.10 in 10.0 mi SW 4.6 mph - N/A   Clear
8:55 AM 59.9 °F 54.9 °F 83% 30.10 in 10.0 mi SW 5.8 mph - N/A   Clear
9:15 AM 61.0 °F 55.4 °F 82% 30.11 in 10.0 mi WSW 4.6 mph - N/A   Clear
9:35 AM 61.7 °F 55.4 °F 80% 30.11 in 10.0 mi WSW 5.8 mph - N/A   Clear
9:55 AM 62.1 °F 55.6 °F 79% 30.11 in 10.0 mi WSW 6.9 mph - N/A   Clear
10:15 AM 63.0 °F 55.8 °F 77% 30.12 in 10.0 mi WSW 9.2 mph - N/A   Clear
10:35 AM 63.7 °F 56.3 °F 77% 30.12 in 10.0 mi WSW 5.8 mph - N/A   Clear
10:55 AM 64.4 °F 56.7 °F 76% 30.12 in 10.0 mi WSW 5.8 mph - N/A   Clear
11:14 AM 65.1 °F 57.2 °F 75% 30.13 in 10.0 mi WSW 6.9 mph - N/A   Scattered Clouds
11:35 AM 65.7 °F 57.4 °F 75% 30.13 in 10.0 mi West 5.8 mph - N/A   Mostly Cloudy
11:55 AM 65.8 °F 57.4 °F 74% 30.13 in 10.0 mi SW 3.5 mph - N/A   Overcast
12:14 PM 66.7 °F 57.7 °F 73% 30.13 in 10.0 mi West 4.6 mph - N/A   Overcast
12:35 PM 68.2 °F 58.5 °F 71% 30.13 in 10.0 mi West 6.9 mph - N/A   Mostly Cloudy
12:55 PM 67.6 °F 58.5 °F 72% 30.13 in 7.0 mi West 5.8 mph - N/A   Mostly Cloudy
1:15 PM 67.5 °F 58.5 °F 73% 30.13 in 7.0 mi West 5.8 mph - N/A   Overcast
1:35 PM 67.5 °F 58.3 °F 72% 30.13 in 7.0 mi South 6.9 mph - N/A   Overcast
1:55 PM 67.8 °F 58.6 °F 72% 30.13 in 10.0 mi SW 6.9 mph - N/A   Overcast
2:15 PM 68.7 °F 58.6 °F 70% 30.12 in 7.0 mi WSW 5.8 mph - N/A   Mostly Cloudy
2:34 PM 69.4 °F 59.0 °F 69% 30.11 in 7.0 mi SW 5.8 mph - N/A   Scattered Clouds
2:55 PM 70.5 °F 59.2 °F 67% 30.11 in 10.0 mi SW 5.8 mph - N/A   Clear
3:15 PM 70.5 °F 58.8 °F 66% 30.10 in 7.0 mi Calm Calm - N/A   Clear
3:35 PM 71.1 °F 59.2 °F 66% 30.10 in 7.0 mi SSE 4.6 mph - N/A   Clear
3:55 PM 71.6 °F 59.5 °F 66% 30.10 in 7.0 mi Calm Calm - N/A   Clear
4:15 PM 72.5 °F 60.3 °F 65% 30.10 in 10.0 mi SW 3.5 mph - N/A   Clear
4:35 PM 72.7 °F 59.7 °F 64% 30.10 in 10.0 mi South 5.8 mph - N/A   Clear
4:55 PM 72.7 °F 60.1 °F 64% 30.10 in 10.0 mi SSE 4.6 mph - N/A   Scattered Clouds
5:14 PM 73.0 °F 59.9 °F 63% 30.10 in 10.0 mi Calm Calm - N/A   Scattered Clouds
5:35 PM 72.9 °F 60.3 °F 65% 30.10 in 10.0 mi SSE 4.6 mph - N/A   Scattered Clouds
5:55 PM 73.4 °F 60.1 °F 63% 30.10 in 10.0 mi SSE 6.9 mph - N/A   Scattered Clouds
6:15 PM 73.2 °F 59.9 °F 63% 30.10 in 10.0 mi South 4.6 mph - N/A   Scattered Clouds
6:35 PM 73.2 °F 59.2 °F 61% 30.10 in 10.0 mi South 5.8 mph - N/A   Scattered Clouds
6:55 PM 72.9 °F 59.7 °F 63% 30.11 in 10.0 mi SE 4.6 mph - N/A   Clear
7:14 PM 68.5 °F 59.4 °F 72% 30.11 in 7.0 mi East 5.8 mph - N/A   Clear
7:35 PM 65.3 °F 58.3 °F 78% 30.11 in 7.0 mi East 4.6 mph - N/A   Clear
7:55 PM 63.9 °F 58.5 °F 83% 30.12 in 7.0 mi East 3.5 mph - N/A   Clear
8:15 PM 63.0 °F 58.1 °F 84% 30.12 in 7.0 mi Calm Calm - N/A   Scattered Clouds
8:35 PM 62.2 °F 57.7 °F 85% 30.12 in 5.0 mi Calm Calm - N/A   Clear
8:55 PM 61.3 °F 57.4 °F 87% 30.13 in 5.0 mi Calm Calm - N/A   Scattered Clouds
9:15 PM 60.4 °F 57.2 °F 89% 30.13 in 5.0 mi Calm Calm - N/A   Clear
9:35 PM 59.7 °F 56.5 °F 89% 30.13 in 4.0 mi Calm Calm - N/A   Clear
9:55 PM 59.0 °F 56.3 °F 91% 30.13 in 4.0 mi Calm Calm - N/A   Clear
10:15 PM 58.8 °F 56.3 °F 91% 30.13 in 3.0 mi Calm Calm - N/A   Clear
10:35 PM 58.3 °F 55.8 °F 91% 30.13 in 4.0 mi SSE 3.5 mph - N/A   Clear
10:55 PM 58.8 °F 56.3 °F 91% 30.13 in 4.0 mi South 3.5 mph - N/A   Clear
11:15 PM 61.3 °F 57.7 °F 88% 30.13 in 7.0 mi South 4.6 mph - N/A   Clear
11:35 PM 62.4 °F 58.3 °F 86% 30.13 in 7.0 mi South 3.5 mph - N/A   Clear
11:55 PM 63.3 °F 58.1 °F 83% 30.13 in 10.0 mi South 4.6 mph - N/A   Clear